| time (UTC) | temp F | wind direction | speed knots | gust knots | rain 1hr in | rain 24hr in | rain mn in | humidity % | barometer mb |
| 20260509182902 | 64 | 128 | 1.7 | 7.0 | 0.00 | 0.00 | 0.00 | 65 | 1023.5 |
| 20260509182358 | 64 | 160 | 0.0 | 5.2 | 0.00 | 0.00 | 0.00 | 65 | 1023.6 |
| 20260509181856 | 63 | 190 | 2.6 | 4.3 | 0.00 | 0.00 | 0.00 | 66 | 1023.6 |
| 20260509181347 | 63 | 224 | 2.6 | 4.3 | 0.00 | 0.00 | 0.00 | 66 | 1023.5 |
| 20260509180845 | 63 | 171 | 2.6 | 9.6 | 0.00 | 0.00 | 0.00 | 67 | 1023.5 |
| 20260509180340 | 63 | 355 | 4.3 | 6.1 | 0.00 | 0.00 | 0.00 | 66 | 1023.8 |
| 20260509175837 | 62 | 213 | 3.5 | 5.2 | 0.00 | 0.00 | 0.00 | 69 | 1023.9 |
| 20260509175333 | 62 | 196 | 0.9 | 2.6 | 0.00 | 0.00 | 0.00 | 69 | 1023.7 |
| 20260509174829 | 62 | 218 | 0.9 | 2.6 | 0.00 | 0.00 | 0.00 | 68 | 1024.0 |
| 20260509174325 | 62 | 148 | 0.9 | 4.3 | 0.00 | 0.00 | 0.00 | 70 | 1023.9 |
| 20260509173821 | 61 | 188 | 2.6 | 5.2 | 0.00 | 0.00 | 0.00 | 71 | 1024.1 |
| 20260509173317 | 61 | 155 | 3.5 | 5.2 | 0.00 | 0.00 | 0.00 | 70 | 1024.1 |
| 20260509172814 | 62 | 155 | 3.5 | 5.2 | 0.00 | 0.00 | 0.00 | 70 | 1024.1 |
| 20260509172310 | 62 | 19 | 2.6 | 7.0 | 0.00 | 0.00 | 0.00 | 71 | 1024.2 |
| 20260509171806 | 62 | 178 | 0.9 | 4.3 | 0.00 | 0.00 | 0.00 | 71 | 1024.0 |
| 20260509171302 | 62 | 265 | 2.6 | 2.6 | 0.00 | 0.00 | 0.00 | 70 | 1024.0 |
| 20260509170759 | 61 | 156 | 0.0 | 4.3 | 0.00 | 0.00 | 0.00 | 71 | 1024.0 |
| 20260509170254 | 60 | 224 | 2.6 | 4.3 | 0.00 | 0.00 | 0.00 | 72 | 1024.0 |
| 20260509165754 | 60 | 159 | 3.5 | 5.2 | 0.00 | 0.00 | 0.00 | 73 | 1024.0 |
| 20260509165244 | 60 | 29 | 3.5 | 5.2 | 0.00 | 0.00 | 0.00 | 72 | 1024.2 |
| 20260509164740 | 59 | 233 | 2.6 | 4.3 | 0.00 | 0.00 | 0.00 | 75 | 1024.2 |
| 20260509164235 | 59 | 211 | 4.3 | 7.8 | 0.00 | 0.00 | 0.00 | 75 | 1024.3 |
| 20260509163732 | 59 | 192 | 2.6 | 6.1 | 0.00 | 0.00 | 0.00 | 76 | 1024.3 |
| 20260509163228 | 58 | 151 | 0.0 | 2.6 | 0.00 | 0.00 | 0.00 | 78 | 1024.2 |
| 20260509162721 | 59 | 186 | 4.3 | 7.8 | 0.00 | 0.00 | 0.00 | 77 | 1024.5 |
| 20260509162216 | 59 | 201 | 6.1 | 7.8 | 0.00 | 0.00 | 0.00 | 77 | 1024.5 |
| 20260509161712 | 60 | 180 | 2.6 | 2.6 | 0.00 | 0.00 | 0.00 | 75 | 1024.4 |
| 20260509161209 | 60 | 122 | 0.0 | 0.0 | 0.00 | 0.00 | 0.00 | 75 | 1024.5 |
| 20260509160704 | 60 | 109 | 0.9 | 1.7 | 0.00 | 0.00 | 0.00 | 74 | 1024.5 |
| 20260509160200 | 59 | 135 | 0.9 | 0.9 | 0.00 | 0.00 | 0.00 | 75 | 1024.7 |
| 20260509155655 | 58 | 170 | 0.0 | 0.9 | 0.00 | 0.00 | 0.00 | 78 | 1024.8 |
| 20260509155152 | 57 | 100 | 0.9 | 1.7 | 0.00 | 0.00 | 0.00 | 79 | 1024.6 |
| 20260509154648 | 58 | 192 | 0.0 | 0.0 | 0.00 | 0.00 | 0.00 | 78 | 1024.8 |
| 20260509154145 | 57 | 157 | 0.0 | 0.0 | 0.00 | 0.00 | 0.00 | 78 | 1024.8 |
| 20260509153642 | 57 | 181 | 0.0 | 0.0 | 0.00 | 0.00 | 0.00 | 79 | 1024.9 |
| 20260509153139 | 57 | 191 | 0.0 | 0.0 | 0.00 | 0.00 | 0.00 | 80 | 1024.9 |
| 20260509152634 | 56 | 115 | 0.0 | 0.0 | 0.00 | 0.00 | 0.00 | 83 | 1025.0 |
| 20260509152132 | 56 | 145 | 0.0 | 0.0 | 0.00 | 0.00 | 0.00 | 85 | 1024.9 |
| 20260509151628 | 55 | 127 | 0.0 | 0.0 | 0.00 | 0.00 | 0.00 | 88 | 1024.9 |
| 20260509151126 | 54 | 146 | 0.0 | 0.0 | 0.00 | 0.00 | 0.00 | 91 | 1025.0 |
| 20260509150624 | 53 | 142 | 0.0 | 0.0 | 0.00 | 0.00 | 0.00 | 93 | 1025.0 |
| 20260509150122 | 53 | 153 | 0.0 | 0.9 | 0.00 | 0.00 | 0.00 | 95 | 1025.0 |
| 20260509145618 | 53 | 132 | 0.0 | 0.0 | 0.00 | 0.00 | 0.00 | 96 | 1025.2 |
| 20260509145113 | 52 | 151 | 0.0 | 0.0 | 0.00 | 0.00 | 0.00 | 97 | 1025.2 |
| 20260509144610 | 51 | 136 | 0.0 | 0.0 | 0.00 | 0.00 | 0.00 | 97 | 1025.3 |
| 20260509144107 | 51 | 156 | 0.9 | 1.7 | 0.00 | 0.00 | 0.00 | 97 | 1025.1 |
| 20260509143604 | 50 | 148 | 0.0 | 0.0 | 0.00 | 0.00 | 0.00 | 97 | 1025.3 |
| 20260509143102 | 49 | 146 | 0.0 | 0.0 | 0.00 | 0.00 | 0.00 | 97 | 1024.9 |
| 20260509142602 | 49 | 146 | 0.0 | 0.0 | 0.00 | 0.00 | 0.00 | 97 | 1025.1 |
| 20260509142058 | 48 | 146 | 0.0 | 0.0 | 0.00 | 0.00 | 0.00 | 96 | 1025.3 |
| 20260509141554 | 48 | 146 | 0.0 | 0.0 | 0.00 | 0.00 | 0.00 | 96 | 1025.2 |
| 20260509141051 | 48 | 146 | 0.0 | 0.0 | 0.00 | 0.00 | 0.00 | 96 | 1025.4 |
| 20260509140548 | 47 | 146 | 0.0 | 0.0 | 0.00 | 0.00 | 0.00 | 96 | 1025.2 |
| 20260509140046 | 47 | 143 | 0.0 | 0.0 | 0.00 | 0.00 | 0.00 | 96 | 1025.4 |
| 20260509135543 | 47 | 148 | 0.0 | 0.0 | 0.00 | 0.00 | 0.00 | 96 | 1025.3 |
| 20260509135041 | 47 | 148 | 0.0 | 0.0 | 0.00 | 0.00 | 0.00 | 96 | 1025.3 |
| 20260509134537 | 47 | 148 | 0.0 | 0.0 | 0.00 | 0.00 | 0.00 | 96 | 1025.5 |
| 20260509134035 | 47 | 148 | 0.0 | 0.0 | 0.00 | 0.00 | 0.00 | 96 | 1025.2 |
| 20260509133532 | 47 | 148 | 0.0 | 0.0 | 0.00 | 0.00 | 0.00 | 96 | 1025.2 |
| 20260509133029 | 47 | 148 | 0.0 | 0.0 | 0.00 | 0.00 | 0.00 | 96 | 1025.5 |
| 20260509132528 | 46 | 148 | 0.0 | 0.0 | 0.00 | 0.00 | 0.00 | 96 | 1025.6 |
| 20260509132026 | 46 | 148 | 0.0 | 0.0 | 0.00 | 0.00 | 0.00 | 96 | 1025.4 |
| 20260509131516 | 46 | 149 | 0.0 | 0.0 | 0.00 | 0.00 | 0.00 | 96 | 1025.5 |
| 20260509131013 | 46 | 145 | 0.0 | 0.0 | 0.00 | 0.00 | 0.00 | 96 | 1025.5 |
| 20260509130509 | 46 | 157 | 0.0 | 0.0 | 0.00 | 0.00 | 0.00 | 95 | 1025.4 |
| 20260509130006 | 46 | 153 | 0.0 | 0.0 | 0.00 | 0.00 | 0.00 | 95 | 1025.2 |
| 20260509125502 | 46 | 154 | 0.0 | 0.0 | 0.00 | 0.00 | 0.00 | 95 | 1025.3 |
| 20260509124958 | 46 | 153 | 0.0 | 0.0 | 0.00 | 0.00 | 0.00 | 95 | 1025.3 |
| 20260509124456 | 46 | 153 | 0.0 | 0.0 | 0.00 | 0.00 | 0.00 | 95 | 1025.2 |
| 20260509123953 | 46 | 153 | 0.0 | 0.0 | 0.00 | 0.00 | 0.00 | 95 | 1025.3 |
| 20260509123450 | 47 | 153 | 0.0 | 0.0 | 0.00 | 0.00 | 0.00 | 95 | 1025.1 |
| 20260509122945 | 47 | 147 | 0.0 | 0.0 | 0.00 | 0.00 | 0.00 | 95 | 1025.2 |
| 20260509122442 | 47 | 142 | 0.0 | 0.9 | 0.00 | 0.00 | 0.00 | 95 | 1025.4 |
| 20260509121939 | 47 | 143 | 0.0 | 0.0 | 0.00 | 0.00 | 0.00 | 95 | 1025.4 |
| 20260509121436 | 47 | 152 | 0.0 | 0.0 | 0.00 | 0.00 | 0.00 | 95 | 1025.2 |
| 20260509120934 | 47 | 152 | 0.0 | 0.0 | 0.00 | 0.00 | 0.00 | 95 | 1025.5 |
| 20260509120432 | 47 | 152 | 0.0 | 0.0 | 0.00 | 0.00 | 0.00 | 94 | 1025.5 |
| 20260509115929 | 47 | 153 | 0.0 | 0.0 | 0.00 | 0.00 | 0.00 | 94 | 1025.3 |
| 20260509115426 | 47 | 152 | 0.0 | 0.0 | 0.00 | 0.00 | 0.00 | 94 | 1025.3 |
| 20260509114924 | 48 | 153 | 0.0 | 0.0 | 0.00 | 0.00 | 0.00 | 94 | 1025.3 |
| 20260509114423 | 48 | 152 | 0.0 | 0.0 | 0.00 | 0.00 | 0.00 | 94 | 1025.5 |
| 20260509113922 | 48 | 152 | 0.0 | 0.0 | 0.00 | 0.00 | 0.00 | 94 | 1025.6 |
| 20260509113419 | 48 | 153 | 0.0 | 0.0 | 0.00 | 0.00 | 0.00 | 93 | 1025.3 |
| 20260509112916 | 48 | 153 | 0.0 | 0.0 | 0.00 | 0.00 | 0.00 | 93 | 1025.4 |
| 20260509112413 | 48 | 153 | 0.0 | 0.0 | 0.00 | 0.00 | 0.00 | 93 | 1025.3 |
| 20260509111909 | 48 | 153 | 0.0 | 0.0 | 0.00 | 0.00 | 0.00 | 93 | 1025.5 |
| 20260509111406 | 49 | 152 | 0.0 | 0.0 | 0.00 | 0.00 | 0.00 | 93 | 1025.5 |
| 20260509110904 | 49 | 153 | 0.0 | 0.0 | 0.00 | 0.00 | 0.00 | 93 | 1025.5 |
| 20260509110359 | 49 | 152 | 0.0 | 0.0 | 0.00 | 0.00 | 0.00 | 92 | 1025.3 |
| 20260509105858 | 49 | 153 | 0.0 | 0.0 | 0.00 | 0.00 | 0.00 | 92 | 1025.7 |
| 20260509105356 | 50 | 153 | 0.0 | 0.0 | 0.00 | 0.00 | 0.00 | 92 | 1025.7 |
| 20260509104852 | 50 | 152 | 0.0 | 0.0 | 0.00 | 0.00 | 0.00 | 92 | 1025.7 |
| 20260509104349 | 50 | 153 | 0.0 | 0.0 | 0.00 | 0.00 | 0.00 | 91 | 1025.6 |
| 20260509103847 | 50 | 150 | 0.0 | 0.0 | 0.00 | 0.00 | 0.00 | 91 | 1025.5 |
| 20260509103344 | 50 | 150 | 0.0 | 0.0 | 0.00 | 0.00 | 0.00 | 90 | 1025.6 |
| 20260509102843 | 51 | 130 | 0.0 | 0.0 | 0.00 | 0.00 | 0.00 | 90 | 1025.6 |
| 20260509102339 | 51 | 148 | 0.0 | 0.9 | 0.00 | 0.00 | 0.00 | 89 | 1025.5 |
| 20260509101835 | 51 | 143 | 0.9 | 0.9 | 0.00 | 0.00 | 0.00 | 89 | 1025.6 |
| 20260509101331 | 52 | 153 | 0.0 | 0.9 | 0.00 | 0.00 | 0.00 | 88 | 1025.7 |
| 20260509100830 | 52 | 153 | 0.0 | 0.0 | 0.00 | 0.00 | 0.00 | 87 | 1025.6 |
| 20260509100326 | 52 | 161 | 0.0 | 1.7 | 0.00 | 0.00 | 0.00 | 87 | 1025.9 |
| 20260509095823 | 53 | 161 | 0.0 | 0.0 | 0.00 | 0.00 | 0.00 | 87 | 1026.0 |
| 20260509095320 | 53 | 154 | 0.0 | 0.0 | 0.00 | 0.00 | 0.00 | 86 | 1026.0 |
| 20260509094817 | 53 | 172 | 0.9 | 0.9 | 0.00 | 0.00 | 0.00 | 85 | 1025.8 |
| 20260509094314 | 53 | 167 | 0.0 | 1.7 | 0.00 | 0.00 | 0.00 | 85 | 1025.8 |
| 20260509093812 | 53 | 166 | 0.0 | 0.0 | 0.00 | 0.00 | 0.00 | 85 | 1025.9 |
| 20260509093309 | 53 | 203 | 0.0 | 0.0 | 0.00 | 0.00 | 0.00 | 85 | 1025.9 |
| 20260509092807 | 53 | 189 | 0.9 | 0.9 | 0.00 | 0.00 | 0.00 | 85 | 1026.0 |
| 20260509092306 | 53 | 164 | 0.9 | 0.9 | 0.00 | 0.00 | 0.00 | 85 | 1026.0 |
| 20260509091803 | 53 | 158 | 0.0 | 0.0 | 0.00 | 0.00 | 0.00 | 85 | 1025.9 |
| 20260509091259 | 53 | 171 | 0.0 | 0.0 | 0.00 | 0.00 | 0.00 | 85 | 1026.1 |
| 20260509090756 | 53 | 159 | 0.0 | 0.0 | 0.00 | 0.00 | 0.00 | 85 | 1025.9 |
| 20260509090253 | 53 | 155 | 0.9 | 0.9 | 0.00 | 0.00 | 0.00 | 85 | 1026.2 |
| 20260509085751 | 54 | 171 | 0.0 | 0.0 | 0.00 | 0.00 | 0.00 | 85 | 1026.3 |
| 20260509085248 | 54 | 170 | 0.0 | 0.9 | 0.00 | 0.00 | 0.00 | 85 | 1026.2 |
| 20260509084744 | 54 | 173 | 0.9 | 1.7 | 0.00 | 0.00 | 0.00 | 85 | 1026.4 |
| 20260509084241 | 54 | 177 | 0.9 | 1.7 | 0.00 | 0.00 | 0.00 | 85 | 1026.4 |
| 20260509083739 | 54 | 202 | 0.0 | 1.7 | 0.00 | 0.00 | 0.00 | 85 | 1026.0 |
| 20260509083236 | 54 | 213 | 2.6 | 2.6 | 0.00 | 0.00 | 0.00 | 85 | 1026.0 |
| 20260509082732 | 54 | 172 | 1.7 | 1.7 | 0.00 | 0.00 | 0.00 | 85 | 1026.2 |
| 20260509082230 | 54 | 167 | 0.9 | 0.9 | 0.00 | 0.00 | 0.00 | 85 | 1026.1 |
| 20260509081726 | 54 | 171 | 0.9 | 2.6 | 0.00 | 0.00 | 0.00 | 85 | 1026.2 |
| 20260509081224 | 54 | 182 | 0.9 | 0.9 | 0.00 | 0.00 | 0.00 | 84 | 1026.0 |
| 20260509080722 | 54 | 157 | 0.0 | 0.9 | 0.00 | 0.00 | 0.00 | 84 | 1026.3 |
| 20260509080219 | 54 | 169 | 0.9 | 1.7 | 0.00 | 0.00 | 0.00 | 84 | 1025.9 |
| 20260509075718 | 54 | 191 | 0.9 | 2.6 | 0.00 | 0.00 | 0.00 | 85 | 1026.1 |
| 20260509075215 | 53 | 185 | 0.0 | 0.9 | 0.00 | 0.00 | 0.00 | 87 | 1026.1 |
| 20260509074711 | 52 | 166 | 1.7 | 1.7 | 0.00 | 0.00 | 0.00 | 89 | 1025.9 |
| 20260509074209 | 52 | 156 | 0.0 | 0.0 | 0.00 | 0.00 | 0.00 | 90 | 1026.2 |
| 20260509073705 | 52 | 161 | 0.0 | 0.0 | 0.00 | 0.00 | 0.00 | 90 | 1025.9 |
| 20260509073201 | 51 | 152 | 0.0 | 0.0 | 0.00 | 0.00 | 0.00 | 90 | 1026.1 |
| 20260509072658 | 51 | 151 | 0.0 | 0.0 | 0.00 | 0.00 | 0.00 | 90 | 1026.0 |
| 20260509072155 | 51 | 149 | 0.0 | 0.0 | 0.00 | 0.00 | 0.00 | 91 | 1025.9 |
| 20260509071651 | 51 | 145 | 0.0 | 0.0 | 0.00 | 0.00 | 0.00 | 91 | 1025.9 |
| 20260509071148 | 50 | 151 | 0.0 | 0.0 | 0.00 | 0.00 | 0.00 | 91 | 1025.9 |
| 20260509070645 | 50 | 141 | 0.0 | 0.0 | 0.00 | 0.00 | 0.00 | 91 | 1025.8 |
| 20260509070142 | 50 | 159 | 0.0 | 0.0 | 0.00 | 0.00 | 0.00 | 91 | 1026.1 |
| 20260509065637 | 50 | 150 | 0.0 | 0.0 | 0.00 | 0.00 | 0.00 | 91 | 1025.9 |
| 20260509065129 | 50 | 150 | 0.0 | 0.0 | 0.00 | 0.00 | 0.00 | 91 | 1025.8 |
| 20260509064626 | 50 | 150 | 0.0 | 0.0 | 0.00 | 0.00 | 0.00 | 91 | 1025.6 |
| 20260509064124 | 50 | 152 | 0.0 | 0.0 | 0.00 | 0.00 | 0.00 | 91 | 1025.8 |
| 20260509063620 | 50 | 152 | 0.0 | 0.0 | 0.00 | 0.00 | 0.00 | 91 | 1025.9 |
| 20260509063117 | 50 | 152 | 0.0 | 0.0 | 0.00 | 0.00 | 0.00 | 91 | 1025.8 |
| 20260509062614 | 49 | 146 | 0.9 | 1.7 | 0.00 | 0.00 | 0.00 | 91 | 1025.9 |
| 20260509062111 | 49 | 139 | 0.0 | 0.0 | 0.00 | 0.00 | 0.00 | 91 | 1025.8 |
| 20260509061608 | 49 | 129 | 0.0 | 0.0 | 0.00 | 0.00 | 0.00 | 91 | 1025.8 |
| 20260509061105 | 49 | 160 | 0.0 | 0.0 | 0.00 | 0.00 | 0.00 | 91 | 1025.6 |
| 20260509060603 | 49 | 152 | 0.0 | 0.0 | 0.00 | 0.00 | 0.00 | 90 | 1025.6 |
| 20260509060059 | 49 | 132 | 0.9 | 1.7 | 0.00 | 0.00 | 0.00 | 91 | 1025.7 |
| 20260509055554 | 49 | 138 | 0.0 | 0.0 | 0.00 | 0.00 | 0.00 | 90 | 1025.5 |
| 20260509055050 | 50 | 149 | 0.0 | 0.0 | 0.00 | 0.00 | 0.00 | 90 | 1025.7 |
| 20260509054548 | 50 | 150 | 0.0 | 0.0 | 0.00 | 0.00 | 0.00 | 90 | 1025.6 |
| 20260509054045 | 50 | 155 | 0.0 | 0.0 | 0.00 | 0.00 | 0.00 | 89 | 1025.7 |
| 20260509053543 | 50 | 153 | 0.0 | 0.0 | 0.00 | 0.00 | 0.00 | 89 | 1025.6 |
| 20260509053040 | 50 | 151 | 0.0 | 0.0 | 0.00 | 0.00 | 0.00 | 88 | 1025.4 |
| 20260509052538 | 50 | 151 | 0.0 | 0.0 | 0.00 | 0.00 | 0.00 | 88 | 1025.7 |
| 20260509052036 | 51 | 145 | 0.0 | 0.0 | 0.00 | 0.00 | 0.00 | 88 | 1025.5 |
| 20260509051533 | 51 | 136 | 0.9 | 0.9 | 0.00 | 0.00 | 0.00 | 88 | 1025.4 |
| 20260509051030 | 51 | 143 | 0.0 | 0.0 | 0.00 | 0.00 | 0.00 | 87 | 1025.5 |
| 20260509050526 | 51 | 122 | 0.9 | 0.9 | 0.00 | 0.00 | 0.00 | 87 | 1025.6 |
| 20260509050023 | 51 | 154 | 1.7 | 1.7 | 0.00 | 0.00 | 0.00 | 87 | 1025.7 |
| 20260509045521 | 51 | 109 | 0.0 | 0.0 | 0.00 | 0.00 | 0.00 | 87 | 1025.4 |
| 20260509045018 | 51 | 144 | 0.0 | 0.0 | 0.00 | 0.00 | 0.00 | 87 | 1025.5 |
| 20260509044515 | 51 | 147 | 0.0 | 0.0 | 0.00 | 0.00 | 0.00 | 86 | 1025.5 |
| 20260509044012 | 51 | 148 | 0.0 | 0.0 | 0.00 | 0.00 | 0.00 | 85 | 1025.4 |
| 20260509043508 | 52 | 148 | 0.0 | 0.0 | 0.00 | 0.00 | 0.00 | 84 | 1025.3 |
| 20260509043004 | 52 | 148 | 0.0 | 0.0 | 0.00 | 0.00 | 0.00 | 84 | 1025.3 |
| 20260509042500 | 52 | 147 | 0.0 | 0.0 | 0.00 | 0.00 | 0.00 | 84 | 1025.6 |
| 20260509041956 | 52 | 150 | 0.0 | 0.0 | 0.00 | 0.00 | 0.00 | 83 | 1025.3 |
| 20260509041453 | 53 | 150 | 0.9 | 0.9 | 0.00 | 0.00 | 0.00 | 82 | 1025.3 |
| 20260509040951 | 53 | 166 | 0.9 | 0.9 | 0.00 | 0.00 | 0.00 | 81 | 1025.1 |
| 20260509040449 | 53 | 150 | 0.0 | 0.0 | 0.00 | 0.00 | 0.00 | 80 | 1025.4 |
| 20260509035945 | 54 | 148 | 0.0 | 0.0 | 0.00 | 0.00 | 0.00 | 79 | 1025.1 |
| 20260509035442 | 54 | 153 | 0.0 | 0.0 | 0.00 | 0.00 | 0.00 | 78 | 1025.2 |
| 20260509034939 | 55 | 137 | 0.0 | 0.0 | 0.00 | 0.00 | 0.00 | 77 | 1025.0 |
| 20260509034437 | 55 | 161 | 0.0 | 0.0 | 0.00 | 0.00 | 0.00 | 75 | 1024.9 |
| 20260509033934 | 55 | 161 | 0.0 | 0.9 | 0.00 | 0.00 | 0.00 | 75 | 1024.9 |
| 20260509033431 | 56 | 161 | 0.0 | 0.9 | 0.00 | 0.00 | 0.00 | 75 | 1024.9 |
| 20260509032927 | 56 | 164 | 0.9 | 0.9 | 0.00 | 0.00 | 0.00 | 74 | 1024.9 |
| 20260509032425 | 56 | 152 | 0.0 | 0.9 | 0.00 | 0.00 | 0.00 | 74 | 1024.6 |
| 20260509031923 | 56 | 154 | 0.0 | 0.0 | 0.00 | 0.00 | 0.00 | 74 | 1024.6 |
| 20260509031420 | 56 | 154 | 0.0 | 0.9 | 0.00 | 0.00 | 0.00 | 72 | 1024.6 |
| 20260509030917 | 57 | 141 | 0.0 | 0.0 | 0.00 | 0.00 | 0.00 | 72 | 1024.7 |
| 20260509030415 | 57 | 148 | 0.0 | 0.0 | 0.00 | 0.00 | 0.00 | 70 | 1024.5 |
| 20260509025912 | 58 | 150 | 0.0 | 0.9 | 0.00 | 0.00 | 0.00 | 70 | 1024.5 |
| 20260509025407 | 58 | 140 | 0.0 | 0.9 | 0.00 | 0.00 | 0.00 | 69 | 1024.4 |
| 20260509024902 | 58 | 153 | 0.0 | 0.9 | 0.00 | 0.00 | 0.00 | 68 | 1024.4 |
| 20260509024359 | 59 | 222 | 1.7 | 2.6 | 0.00 | 0.00 | 0.00 | 67 | 1024.4 |
| 20260509023856 | 59 | 162 | 2.6 | 2.6 | 0.00 | 0.00 | 0.00 | 66 | 1024.4 |
| 20260509023353 | 59 | 185 | 0.9 | 1.7 | 0.00 | 0.00 | 0.00 | 65 | 1024.5 |
| 20260509022850 | 60 | 189 | 2.6 | 4.3 | 0.00 | 0.00 | 0.00 | 64 | 1024.3 |
| 20260509022347 | 60 | 170 | 0.0 | 4.3 | 0.00 | 0.00 | 0.00 | 64 | 1024.2 |
| 20260509021844 | 60 | 184 | 1.7 | 5.2 | 0.00 | 0.00 | 0.00 | 63 | 1024.1 |
| 20260509021341 | 60 | 177 | 2.6 | 5.2 | 0.00 | 0.00 | 0.00 | 62 | 1024.3 |
| 20260509020839 | 60 | 209 | 1.7 | 4.3 | 0.00 | 0.00 | 0.00 | 63 | 1024.4 |
| 20260509020337 | 60 | 209 | 2.6 | 5.2 | 0.00 | 0.00 | 0.00 | 62 | 1024.5 |
| 20260509015834 | 60 | 198 | 2.6 | 6.1 | 0.00 | 0.00 | 0.00 | 62 | 1024.5 |
| 20260509015332 | 60 | 191 | 1.7 | 4.3 | 0.00 | 0.00 | 0.00 | 63 | 1024.6 |
| 20260509014828 | 60 | 187 | 0.9 | 2.6 | 0.00 | 0.00 | 0.00 | 63 | 1024.6 |
| 20260509014325 | 60 | 207 | 2.6 | 4.3 | 0.00 | 0.00 | 0.00 | 61 | 1024.4 |
| 20260509013822 | 60 | 190 | 2.6 | 6.1 | 0.00 | 0.00 | 0.00 | 61 | 1024.5 |
| 20260509013318 | 61 | 211 | 2.6 | 7.8 | 0.00 | 0.00 | 0.00 | 61 | 1024.1 |
| 20260509012815 | 61 | 150 | 6.1 | 7.0 | 0.00 | 0.00 | 0.00 | 60 | 1024.5 |
| 20260509012311 | 61 | 168 | 2.6 | 6.1 | 0.00 | 0.00 | 0.00 | 59 | 1024.4 |
| 20260509011809 | 61 | 112 | 4.3 | 5.2 | 0.00 | 0.00 | 0.00 | 59 | 1024.4 |
| 20260509011306 | 60 | 180 | 2.6 | 2.6 | 0.00 | 0.00 | 0.00 | 60 | 1024.4 |
| 20260509010804 | 61 | 218 | 2.6 | 6.1 | 0.00 | 0.00 | 0.00 | 59 | 1024.4 |
| 20260509010300 | 61 | 228 | 4.3 | 5.2 | 0.00 | 0.00 | 0.00 | 59 | 1024.3 |
| 20260509005752 | 61 | 161 | 0.9 | 2.6 | 0.00 | 0.00 | 0.00 | 59 | 1024.7 |
| 20260509005249 | 61 | 219 | 3.5 | 6.1 | 0.00 | 0.00 | 0.00 | 59 | 1024.5 |
| 20260509004744 | 60 | 223 | 2.6 | 5.2 | 0.00 | 0.00 | 0.00 | 60 | 1024.4 |
| 20260509004241 | 61 | 226 | 4.3 | 6.1 | 0.00 | 0.00 | 0.00 | 59 | 1024.4 |
| 20260509003739 | 61 | 183 | 0.9 | 5.2 | 0.00 | 0.00 | 0.00 | 58 | 1024.6 |
| 20260509003236 | 61 | 223 | 5.2 | 6.1 | 0.00 | 0.00 | 0.00 | 57 | 1024.6 |
| 20260509002734 | 62 | 251 | 3.5 | 7.8 | 0.00 | 0.00 | 0.00 | 56 | 1024.5 |
| 20260509002231 | 62 | 224 | 4.3 | 6.1 | 0.00 | 0.00 | 0.00 | 56 | 1024.4 |
| 20260509001729 | 63 | 194 | 6.1 | 7.0 | 0.00 | 0.00 | 0.00 | 55 | 1024.6 |
| 20260509001224 | 62 | 174 | 2.6 | 7.0 | 0.00 | 0.00 | 0.00 | 56 | 1024.3 |
| 20260509000722 | 62 | 137 | 1.7 | 7.0 | 0.00 | 0.00 | 0.00 | 57 | 1024.5 |
| 20260509000219 | 63 | 162 | 2.6 | 6.1 | 0.00 | 0.00 | 0.00 | 55 | 1024.5 |
| 20260508235716 | 63 | 147 | 4.3 | 7.8 | 0.00 | 0.00 | 0.00 | 55 | 1024.7 |
| 20260508235212 | 63 | 234 | 3.5 | 7.0 | 0.00 | 0.00 | 0.00 | 55 | 1024.4 |
| 20260508234710 | 63 | 262 | 4.3 | 7.8 | 0.00 | 0.00 | 0.00 | 54 | 1024.4 |
| 20260508234206 | 63 | 144 | 4.3 | 7.8 | 0.00 | 0.00 | 0.00 | 54 | 1024.5 |
| 20260508233706 | 63 | 180 | 5.2 | 6.1 | 0.00 | 0.00 | 0.00 | 54 | 1024.3 |
| 20260508233203 | 63 | 189 | 4.3 | 8.7 | 0.00 | 0.00 | 0.00 | 55 | 1024.3 |
| 20260508232700 | 63 | 141 | 3.5 | 9.6 | 0.00 | 0.00 | 0.00 | 54 | 1024.4 |
| 20260508232156 | 63 | 232 | 5.2 | 7.0 | 0.00 | 0.00 | 0.00 | 54 | 1024.5 |
| 20260508231655 | 63 | 189 | 3.5 | 8.7 | 0.00 | 0.00 | 0.00 | 52 | 1024.3 |
| 20260508231151 | 62 | 200 | 2.6 | 5.2 | 0.00 | 0.00 | 0.00 | 54 | 1024.5 |
| 20260508230648 | 62 | 197 | 5.2 | 7.8 | 0.00 | 0.00 | 0.00 | 55 | 1024.3 |
| 20260508230144 | 62 | 231 | 3.5 | 6.1 | 0.00 | 0.00 | 0.00 | 54 | 1024.6 |
| 20260508225642 | 63 | 130 | 2.6 | 5.2 | 0.00 | 0.00 | 0.00 | 53 | 1024.6 |
| 20260508225138 | 63 | 157 | 3.5 | 7.8 | 0.00 | 0.00 | 0.00 | 52 | 1024.4 |
| 20260508224636 | 62 | 237 | 4.3 | 7.0 | 0.00 | 0.00 | 0.00 | 54 | 1024.6 |
| 20260508224134 | 62 | 226 | 6.1 | 7.8 | 0.00 | 0.00 | 0.00 | 53 | 1024.5 |
| 20260508223631 | 62 | 205 | 2.6 | 8.7 | 0.00 | 0.00 | 0.00 | 53 | 1024.5 |
| 20260508223128 | 62 | 226 | 5.2 | 12.2 | 0.00 | 0.00 | 0.00 | 53 | 1024.6 |
| 20260508222626 | 62 | 164 | 6.1 | 8.7 | 0.00 | 0.00 | 0.00 | 52 | 1024.7 |
| 20260508222122 | 61 | 282 | 7.0 | 8.7 | 0.00 | 0.00 | 0.00 | 55 | 1024.6 |
| 20260508221618 | 61 | 234 | 4.3 | 7.8 | 0.00 | 0.00 | 0.00 | 56 | 1024.3 |
| 20260508221114 | 62 | 261 | 6.1 | 6.1 | 0.00 | 0.00 | 0.00 | 55 | 1024.3 |
| 20260508220611 | 62 | 212 | 2.6 | 6.1 | 0.00 | 0.00 | 0.00 | 55 | 1024.6 |
| 20260508220108 | 61 | 191 | 6.1 | 7.0 | 0.00 | 0.00 | 0.00 | 55 | 1024.7 |
| 20260508215559 | 62 | 235 | 4.3 | 7.8 | 0.00 | 0.00 | 0.00 | 55 | 1024.6 |
| 20260508215056 | 61 | 230 | 2.6 | 5.2 | 0.00 | 0.00 | 0.00 | 56 | 1024.6 |
| 20260508214553 | 60 | 228 | 5.2 | 11.3 | 0.00 | 0.00 | 0.00 | 56 | 1024.7 |
| 20260508214049 | 61 | 240 | 5.2 | 12.2 | 0.00 | 0.00 | 0.00 | 55 | 1024.4 |
| 20260508213547 | 60 | 202 | 6.1 | 9.6 | 0.00 | 0.00 | 0.00 | 56 | 1024.7 |
| 20260508213043 | 60 | 189 | 1.7 | 8.7 | 0.00 | 0.00 | 0.00 | 57 | 1024.5 |
| 20260508212539 | 60 | 244 | 6.1 | 8.7 | 0.00 | 0.00 | 0.00 | 57 | 1024.5 |
| 20260508212036 | 60 | 186 | 4.3 | 8.7 | 0.00 | 0.00 | 0.00 | 57 | 1024.5 |
| 20260508211531 | 60 | 249 | 7.0 | 7.8 | 0.00 | 0.00 | 0.00 | 57 | 1024.5 |
| 20260508211028 | 60 | 268 | 6.1 | 7.8 | 0.00 | 0.00 | 0.00 | 57 | 1024.6 |
| 20260508210525 | 59 | 227 | 7.0 | 7.8 | 0.00 | 0.00 | 0.00 | 58 | 1024.4 |
| 20260508210022 | 59 | 205 | 2.6 | 5.2 | 0.00 | 0.00 | 0.00 | 60 | 1024.4 |
| 20260508205519 | 59 | 250 | 7.0 | 7.8 | 0.00 | 0.00 | 0.00 | 59 | 1024.5 |
| 20260508205015 | 59 | 244 | 6.1 | 8.7 | 0.00 | 0.00 | 0.00 | 59 | 1024.5 |
| 20260508204512 | 59 | 184 | 4.3 | 8.7 | 0.00 | 0.00 | 0.00 | 60 | 1024.0 |
| 20260508204008 | 58 | 208 | 4.3 | 7.8 | 0.00 | 0.00 | 0.00 | 60 | 1024.3 |
| 20260508203504 | 59 | 175 | 4.3 | 7.0 | 0.00 | 0.00 | 0.00 | 60 | 1024.2 |
| 20260508202959 | 59 | 254 | 7.0 | 9.6 | 0.00 | 0.00 | 0.00 | 60 | 1024.5 |
| 20260508202457 | 59 | 236 | 4.3 | 6.1 | 0.00 | 0.00 | 0.00 | 62 | 1024.1 |
| 20260508201954 | 58 | 201 | 4.3 | 6.1 | 0.00 | 0.00 | 0.00 | 61 | 1024.2 |
| 20260508201450 | 57 | 168 | 4.3 | 13.9 | 0.00 | 0.00 | 0.00 | 62 | 1024.2 |
| 20260508200947 | 58 | 163 | 6.1 | 11.3 | 0.00 | 0.00 | 0.00 | 61 | 1024.3 |
| 20260508200444 | 58 | 243 | 7.0 | 11.3 | 0.00 | 0.00 | 0.00 | 61 | 1024.4 |
| 20260508195938 | 57 | 224 | 3.5 | 6.1 | 0.00 | 0.00 | 0.00 | 62 | 1024.2 |
| 20260508195436 | 57 | 170 | 2.6 | 6.1 | 0.00 | 0.00 | 0.00 | 62 | 1024.2 |
| 20260508194932 | 57 | 181 | 8.7 | 9.6 | 0.00 | 0.00 | 0.00 | 61 | 1024.3 |
| 20260508194429 | 57 | 217 | 7.0 | 7.8 | 0.00 | 0.00 | 0.00 | 62 | 1024.4 |
| 20260508193926 | 57 | 163 | 3.5 | 6.1 | 0.00 | 0.00 | 0.00 | 62 | 1024.4 |
| 20260508193423 | 57 | 210 | 9.6 | 12.2 | 0.00 | 0.00 | 0.00 | 63 | 1024.3 |
| 20260508192919 | 56 | 207 | 2.6 | 6.1 | 0.00 | 0.00 | 0.00 | 64 | 1024.2 |
| 20260508192416 | 56 | 151 | 4.3 | 15.6 | 0.00 | 0.00 | 0.00 | 63 | 1024.3 |
| 20260508191913 | 56 | 163 | 3.5 | 6.1 | 0.00 | 0.00 | 0.00 | 64 | 1024.3 |
| 20260508191412 | 55 | 178 | 5.2 | 15.6 | 0.00 | 0.00 | 0.00 | 64 | 1024.1 |
| 20260508190908 | 55 | 248 | 5.2 | 11.3 | 0.00 | 0.00 | 0.00 | 65 | 1024.1 |
| 20260508190405 | 55 | 170 | 7.8 | 12.2 | 0.00 | 0.00 | 0.00 | 67 | 1024.2 |
| 20260508185901 | 55 | 167 | 6.1 | 7.8 | 0.00 | 0.00 | 0.00 | 67 | 1024.2 |
| 20260508185359 | 54 | 293 | 3.5 | 6.1 | 0.00 | 0.00 | 0.00 | 69 | 1024.3 |
| 20260508184856 | 54 | 232 | 7.8 | 9.6 | 0.00 | 0.00 | 0.00 | 68 | 1024.2 |
| 20260508184353 | 54 | 136 | 4.3 | 6.1 | 0.00 | 0.00 | 0.00 | 69 | 1024.3 |
| 20260508183849 | 54 | 214 | 7.8 | 12.2 | 0.00 | 0.00 | 0.00 | 69 | 1024.3 |
| 20260508183346 | 54 | 196 | 5.2 | 8.7 | 0.00 | 0.00 | 0.00 | 69 | 1024.2 |